Location: Hillern
(53.0557°N, 9.8577°E)
Time: 05:28:18
(UTC+00:00)

Nadezhda 3 Rocket - Pass Details

Date: 19 May 2025
Orbit: 957 x 997 km, 82.9° (Epoch: 14 June)

Event Time Altitude Azimuth Distance (km) Brightness Sun altitude
Exits shadow 21:21:59 17° 161° (SSE) 2,228 5.2 -12.8°
Maximum altitude 21:26:35 51° 91° (E) 1,205 4.3 -13.2°
Drops below altitude 10° 21:32:36 10° 18° (NNE) 2,738 7.1 -13.5°
Sets 21:35:11 0° 14° (NNE) 3,697 7.9 -13.7°
